{"data":{"norad_id":53668,"epoch":"2026-05-25T04:00:03.998880Z","epoch_age_seconds":57657,"freshness":"FRESH","line1":"1 53668U 22105W   26145.16671295  .00506579  00000+0  12704-1 0  9999","line2":"2 53668  97.6037  28.3424 0001696  85.5798 304.4613 15.37973280  5853","mean_motion":15.3797328,"eccentricity":0.0001696,"inclination_deg":97.6037,"raan_deg":28.3424,"arg_perigee_deg":85.5798,"mean_anomaly_deg":304.4613,"bstar":0.012704,"rev_number":585,"period_min":93.629715075414,"perigee_km":450.94485844233,"apogee_km":453.26167594096,"semimajor_km":6830.2402671916,"source":"CELESTRAK","updated_at":"2026-05-25T13:38:17.488182Z"}}